Time,TemperatureF,DewpointF,PressureIn,WindDirection,WindDirectionDegrees,WindSpeedMPH,WindSpeedGustMPH,Humidity,HourlyPrecipIn,Conditions,Clouds,dailyrainin,SoftwareType,DateUTC
2013-04-13 00:08:00,2.1,-3.7,30.46,SSE,157,0.0,-999.0,76,-99.99,,,0.00,Acu-Link.com,2013-04-13 08:08:00,
2013-04-13 00:24:00,1.9,-3.3,30.46,SSE,157,0.0,-999.0,78,-99.99,,,0.00,Acu-Link.com,2013-04-13 08:24:00,
2013-04-13 00:54:00,1.0,-4.2,30.47,SSE,157,0.0,-999.0,78,-99.99,,,0.00,Acu-Link.com,2013-04-13 08:54:00,
2013-04-13 01:09:00,0.7,-5.1,30.47,SSE,157,0.0,-999.0,76,-99.99,,,0.00,Acu-Link.com,2013-04-13 09:09:00,
2013-04-13 01:39:00,-0.4,-5.1,30.47,SSE,157,0.0,-999.0,80,-99.99,,,0.00,Acu-Link.com,2013-04-13 09:39:00,
2013-04-13 01:54:00,-0.9,-5.8,30.48,SSE,157,0.0,-999.0,79,-99.99,,,0.00,Acu-Link.com,2013-04-13 09:54:00,
2013-04-13 02:10:00,-1.8,-6.2,30.47,SSE,157,0.0,-999.0,81,-99.99,,,0.00,Acu-Link.com,2013-04-13 10:10:00,
2013-04-13 02:25:00,-2.4,-6.5,30.49,SSE,157,0.0,-999.0,82,-99.99,,,0.00,Acu-Link.com,2013-04-13 10:25:00,
2013-04-13 02:40:00,-2.7,-6.1,30.49,SSE,157,0.0,-999.0,85,-99.99,,,0.00,Acu-Link.com,2013-04-13 10:40:00,
2013-04-13 02:55:00,-3.6,-7.2,30.49,SSE,157,0.0,-999.0,84,-99.99,,,0.00,Acu-Link.com,2013-04-13 10:55:00,
2013-04-13 03:10:00,-4.5,-8.1,30.49,SSE,157,0.0,-999.0,84,-99.99,,,0.00,Acu-Link.com,2013-04-13 11:10:00,
2013-04-13 03:25:00,-3.8,-6.4,30.49,SSE,157,0.0,-999.0,88,-99.99,,,0.00,Acu-Link.com,2013-04-13 11:25:00,
2013-04-13 03:40:00,-2.6,-6.0,30.50,SSE,157,0.0,-999.0,85,-99.99,,,0.00,Acu-Link.com,2013-04-13 11:40:00,
2013-04-13 03:56:00,-4.2,-8.3,30.50,SSE,157,0.0,-999.0,82,-99.99,,,0.00,Acu-Link.com,2013-04-13 11:56:00,
2013-04-13 04:11:00,-5.1,-8.9,30.51,SSE,157,0.0,-999.0,83,-99.99,,,0.00,Acu-Link.com,2013-04-13 12:11:00,
2013-04-13 04:26:00,-5.3,-8.9,30.50,SSE,157,0.0,-999.0,84,-99.99,,,0.00,Acu-Link.com,2013-04-13 12:26:00,
2013-04-13 05:11:00,-6.5,-10.0,30.51,SSE,157,0.0,-999.0,84,-99.99,,,0.00,Acu-Link.com,2013-04-13 13:11:00,
2013-04-13 05:42:00,-6.5,-10.0,30.51,SSE,157,0.0,-999.0,84,-99.99,,,0.00,Acu-Link.com,2013-04-13 13:42:00,
2013-04-13 06:12:00,-7.2,-11.0,30.52,SSE,157,0.0,-999.0,83,-99.99,,,0.00,Acu-Link.com,2013-04-13 14:12:00,
2013-04-13 06:42:00,-7.6,-11.6,30.53,SSE,157,0.0,-999.0,82,-99.99,,,0.00,Acu-Link.com,2013-04-13 14:42:00,
2013-04-13 06:57:00,-6.7,-10.5,30.53,SSE,157,0.0,-999.0,83,-99.99,,,0.00,Acu-Link.com,2013-04-13 14:57:00,
2013-04-13 07:12:00,-6.3,-10.3,30.53,SSE,157,0.0,-999.0,82,-99.99,,,0.00,Acu-Link.com,2013-04-13 15:12:00,
2013-04-13 07:43:00,-2.4,-5.8,30.54,SSE,157,0.0,-999.0,85,-99.99,,,0.00,Acu-Link.com,2013-04-13 15:43:00,
2013-04-13 07:58:00,0.3,-3.6,30.54,SSE,157,0.0,-999.0,83,-99.99,,,0.00,Acu-Link.com,2013-04-13 15:58:00,
2013-04-13 08:28:00,7.0,2.2,30.55,SSE,157,0.0,-999.0,80,-99.99,,,0.00,Acu-Link.com,2013-04-13 16:28:00,
2013-04-13 08:43:00,9.7,3.1,30.55,SSE,157,0.0,-999.0,74,-99.99,,,0.00,Acu-Link.com,2013-04-13 16:43:00,
2013-04-13 09:14:00,13.8,0.7,30.56,SSE,157,0.0,-999.0,55,-99.99,,,0.00,Acu-Link.com,2013-04-13 17:14:00,
2013-04-13 09:29:00,15.1,-0.6,30.55,SSE,157,0.0,-999.0,49,-99.99,,,0.00,Acu-Link.com,2013-04-13 17:29:00,
2013-04-13 09:44:00,18.7,1.4,30.56,SSE,157,0.0,-999.0,46,-99.99,,,0.00,Acu-Link.com,2013-04-13 17:44:00,
2013-04-13 10:00:00,19.4,0.6,30.56,SSE,157,1.7,-999.0,43,-99.99,,,0.00,Acu-Link.com,2013-04-13 18:00:00,
2013-04-13 10:30:00,16.0,-0.2,30.57,SSE,157,1.7,-999.0,48,-99.99,,,0.00,Acu-Link.com,2013-04-13 18:30:00,
2013-04-13 10:45:00,14.7,-0.5,30.56,SSW,202,3.2,-999.0,50,-99.99,,,0.00,Acu-Link.com,2013-04-13 18:45:00,
2013-04-13 11:00:00,15.6,0.3,30.56,SSE,157,2.7,-999.0,50,-99.99,,,0.00,Acu-Link.com,2013-04-13 19:00:00,
2013-04-13 11:16:00,18.0,0.3,30.57,SSE,157,1.7,-999.0,45,-99.99,,,0.00,Acu-Link.com,2013-04-13 19:16:00,
2013-04-13 11:31:00,22.8,1.6,30.57,SSE,157,0.0,-999.0,39,-99.99,,,0.00,Acu-Link.com,2013-04-13 19:31:00,
2013-04-13 12:01:00,22.3,1.7,30.56,SW,225,2.7,-999.0,40,-99.99,,,0.00,Acu-Link.com,2013-04-13 20:01:00,
2013-04-13 12:16:00,28.8,3.4,30.56,ESE,112,0.0,-999.0,33,-99.99,,,0.00,Acu-Link.com,2013-04-13 20:16:00,
2013-04-13 12:31:00,33.4,3.8,30.55,East,90,1.7,-999.0,28,-99.99,,,0.00,Acu-Link.com,2013-04-13 20:31:00,
2013-04-13 12:46:00,32.5,3.1,30.56,West,270,3.2,-999.0,28,-99.99,,,0.00,Acu-Link.com,2013-04-13 20:46:00,
2013-04-13 13:01:00,33.3,3.8,30.56,SW,225,3.7,-999.0,28,-99.99,,,0.00,Acu-Link.com,2013-04-13 21:01:00,
2013-04-13 13:16:00,31.5,4.4,30.56,SSE,157,0.0,-999.0,31,-99.99,,,0.00,Acu-Link.com,2013-04-13 21:16:00,
2013-04-13 13:32:00,35.8,5.1,30.55,East,90,2.7,-999.0,27,-99.99,,,0.00,Acu-Link.com,2013-04-13 21:32:00,
2013-04-13 13:47:00,36.9,5.3,30.55,SSE,157,1.1,-999.0,26,-99.99,,,0.00,Acu-Link.com,2013-04-13 21:47:00,
2013-04-13 14:02:00,37.4,4.8,30.55,SSE,157,2.7,-999.0,25,-99.99,,,0.00,Acu-Link.com,2013-04-13 22:02:00,
2013-04-13 14:17:00,36.1,5.4,30.55,SE,135,3.7,-999.0,27,-99.99,,,0.01,Acu-Link.com,2013-04-13 22:17:00,
2013-04-13 14:32:00,37.2,4.7,30.55,SSE,157,3.2,-999.0,25,-99.99,,,0.01,Acu-Link.com,2013-04-13 22:32:00,
2013-04-13 14:47:00,35.8,4.3,30.54,SSW,202,4.2,-999.0,26,-99.99,,,0.01,Acu-Link.com,2013-04-13 22:47:00,
2013-04-13 15:02:00,36.0,4.5,30.54,ESE,112,4.2,-999.0,26,-99.99,,,0.02,Acu-Link.com,2013-04-13 23:02:00,
2013-04-13 15:17:00,34.3,3.8,30.53,SSE,157,3.7,-999.0,27,-99.99,,,0.02,Acu-Link.com,2013-04-13 23:17:00,
2013-04-13 15:32:00,35.1,3.7,30.53,SW,225,2.2,-999.0,26,-99.99,,,0.02,Acu-Link.com,2013-04-13 23:32:00,
2013-04-13 15:48:00,34.9,3.5,30.53,ESE,112,2.2,-999.0,26,-99.99,,,0.02,Acu-Link.com,2013-04-13 23:48:00,
2013-04-13 16:03:00,28.0,3.9,30.53,ESE,112,2.7,-999.0,35,-99.99,,,0.02,Acu-Link.com,2013-04-14 00:03:00,
2013-04-13 16:18:00,28.9,4.1,30.53,SE,135,3.2,-999.0,34,-99.99,,,0.03,Acu-Link.com,2013-04-14 00:18:00,
2013-04-13 16:33:00,28.4,3.7,30.54,SSE,157,4.7,-999.0,34,-99.99,,,0.03,Acu-Link.com,2013-04-14 00:33:00,
2013-04-13 16:48:00,29.1,3.6,30.54,SSE,157,2.2,-999.0,33,-99.99,,,0.03,Acu-Link.com,2013-04-14 00:48:00,
2013-04-13 17:03:00,29.7,4.2,30.54,West,270,2.7,-999.0,33,-99.99,,,0.03,Acu-Link.com,2013-04-14 01:03:00,
2013-04-13 17:19:00,30.6,4.3,30.54,ESE,112,2.7,-999.0,32,-99.99,,,0.03,Acu-Link.com,2013-04-14 01:19:00,
2013-04-13 17:34:00,29.7,4.8,30.54,WSW,247,2.7,-999.0,34,-99.99,,,0.03,Acu-Link.com,2013-04-14 01:34:00,
2013-04-13 17:49:00,29.8,4.2,30.54,SW,225,3.7,-999.0,33,-99.99,,,0.03,Acu-Link.com,2013-04-14 01:49:00,
2013-04-13 18:04:00,29.3,4.5,30.54,SE,135,2.7,-999.0,34,-99.99,,,0.03,Acu-Link.com,2013-04-14 02:04:00,
2013-04-13 18:19:00,30.2,4.6,30.54,SW,225,3.7,-999.0,33,-99.99,,,0.03,Acu-Link.com,2013-04-14 02:19:00,
2013-04-13 18:34:00,30.7,5.0,30.54,East,90,1.7,-999.0,33,-99.99,,,0.03,Acu-Link.com,2013-04-14 02:34:00,
2013-04-13 18:49:00,28.6,4.5,30.54,SSE,157,3.2,-999.0,35,-99.99,,,0.03,Acu-Link.com,2013-04-14 02:49:00,
2013-04-13 19:04:00,28.0,4.5,30.54,SSW,202,1.7,-999.0,36,-99.99,,,0.03,Acu-Link.com,2013-04-14 03:04:00,
2013-04-13 19:19:00,28.6,4.5,30.54,ESE,112,2.7,-999.0,35,-99.99,,,0.03,Acu-Link.com,2013-04-14 03:19:00,
2013-04-13 19:34:00,29.5,4.6,30.54,South,180,1.7,-999.0,34,-99.99,,,0.03,Acu-Link.com,2013-04-14 03:34:00,
2013-04-13 19:50:00,29.7,4.8,30.55,WSW,247,2.2,-999.0,34,-99.99,,,0.03,Acu-Link.com,2013-04-14 03:50:00,
2013-04-13 20:05:00,28.0,3.9,30.55,SE,135,2.2,-999.0,35,-99.99,,,0.03,Acu-Link.com,2013-04-14 04:05:00,
2013-04-13 20:20:00,27.9,3.8,30.56,SE,135,0.0,-999.0,35,-99.99,,,0.03,Acu-Link.com,2013-04-14 04:20:00,
2013-04-13 20:35:00,24.1,3.3,30.55,SSE,157,3.2,-999.0,40,-99.99,,,0.03,Acu-Link.com,2013-04-14 04:35:00,
2013-04-13 20:50:00,22.5,2.9,30.56,South,180,1.1,-999.0,42,-99.99,,,0.03,Acu-Link.com,2013-04-14 04:50:00,
2013-04-13 21:05:00,18.9,3.4,30.56,South,180,0.0,-999.0,50,-99.99,,,0.03,Acu-Link.com,2013-04-14 05:05:00,
2013-04-13 21:20:00,16.7,2.6,30.57,South,180,0.0,-999.0,53,-99.99,,,0.03,Acu-Link.com,2013-04-14 05:20:00,
2013-04-13 21:35:00,15.3,1.7,30.57,South,180,0.0,-999.0,54,-99.99,,,0.03,Acu-Link.com,2013-04-14 05:35:00,
2013-04-13 21:50:00,13.6,2.0,30.57,South,180,0.0,-999.0,59,-99.99,,,0.03,Acu-Link.com,2013-04-14 05:50:00,
2013-04-13 22:06:00,11.8,1.3,30.58,South,180,0.0,-999.0,62,-99.99,,,0.03,Acu-Link.com,2013-04-14 06:06:00,
2013-04-13 22:51:00,9.9,1.5,30.58,South,180,0.0,-999.0,68,-99.99,,,0.03,Acu-Link.com,2013-04-14 06:51:00,
2013-04-13 23:06:00,9.3,1.2,30.58,South,180,0.0,-999.0,69,-99.99,,,0.03,Acu-Link.com,2013-04-14 07:06:00,
2013-04-13 23:21:00,9.3,1.8,30.58,South,180,0.0,-999.0,71,-99.99,,,0.03,Acu-Link.com,2013-04-14 07:21:00,
2013-04-13 23:37:00,9.1,1.6,30.59,South,180,0.0,-999.0,71,-99.99,,,0.03,Acu-Link.com,2013-04-14 07:37:00,
2013-04-13 23:52:00,8.8,1.0,30.59,South,180,0.0,-999.0,70,-99.99,,,0.03,Acu-Link.com,2013-04-14 07:52:00,